Volver al catálogo

FENGYUN 1C DEB

ActivoSSO
NORAD 31451·DEBRIS·🇨🇳 China

Lanzado May 10, 1999 desde Taiyuan Satellite Launch Center

Loading…

Próximos Pases (próximas 24 horas)

TLE

ActualizadoSource: Space-Track

Época: Sep 11, 2026, 14:15 UTC

1 31451U 99025BUP 26254.59421478  .00000318  00000-0  18921-3 0  9994
2 31451  98.7330 295.7686 0032064 154.2405 358.5267 14.13938761998651

Sigue FENGYUN 1C DEB en tiempo real con AllMySat

Download on the App Store